This is the latest recevied weather packets stored in our database for station/object N3NDE. If no packets are shown the sender has not sent any weather packets the latest 1 day(s).
| Time | Temp. | Humidity | Pressure | Rain* | Wind** | Luminosity | Snow |
|---|---|---|---|---|---|---|---|
| 1778010879 | 7.78° C | 77% | 1013.1 hPa | 0 mm | 0 m/s | 261 W/m² | - |
| 1778010577 | 7.22° C | 78% | 1013.4 hPa | 0 mm | 0 m/s | 215 W/m² | - |
| 1778010274 | 6.67° C | 82% | 1013 hPa | 0 mm | 0 m/s | 186 W/m² | - |
| 1778009974 | 6.67° C | 80% | 1013.5 hPa | 0 mm | 0 m/s | 149 W/m² | - |
| 1778009672 | 6.67° C | 84% | 1013.4 hPa | 0 mm | 0 m/s | 161 W/m² | - |
| 1778009370 | 6.67° C | 83% | 1013.3 hPa | 0 mm | 0.89 m/s, 40° | 186 W/m² | - |
| 1778009067 | 6.67° C | 83% | 1013.4 hPa | 0 mm | 1.34 m/s, 46° | 198 W/m² | - |
| 1778008765 | 6.67° C | 84% | 1013.3 hPa | 1.27 mm | 0 m/s | 184 W/m² | - |
| 1778008464 | 6.67° C | 86% | 1013.4 hPa | 1.27 mm | 0.45 m/s, 49° | 156 W/m² | - |
| 1778008160 | 6.67° C | 84% | 1013.3 hPa | 0 mm | 0.45 m/s, 43° | 172 W/m² | - |
| 1778007855 | 6.67° C | 87% | 1013.4 hPa | 0 mm | 0.45 m/s, 51° | 175 W/m² | - |
| 1778007551 | 6.67° C | 88% | 1013.3 hPa | 0 mm | 0 m/s | 161 W/m² | - |
| 1778007248 | 6.11° C | 87% | 1013.3 hPa | 0 mm | 1.34 m/s, 33° | 161 W/m² | - |
| 1778006944 | 6.11° C | 88% | 1013 hPa | 0 mm | 0.45 m/s, 52° | 157 W/m² | - |
| 1778006641 | 6.11° C | 87% | 1012.9 hPa | 0 mm | 0.45 m/s, 44° | 155 W/m² | - |
| 1778006338 | 6.11° C | 88% | 1013.3 hPa | 0 mm | 0.45 m/s, 46° | 142 W/m² | - |
| 1778006035 | 6.11° C | 86% | 1013.1 hPa | 0 mm | 0.45 m/s, 48° | 122 W/m² | - |
| 1778005731 | 6.11° C | 86% | 1012.9 hPa | 0 mm | 0 m/s | 135 W/m² | - |
| 1778005428 | 6.11° C | 87% | 1013 hPa | 0 mm | 0 m/s | 120 W/m² | - |
| 1778005125 | 6.11° C | 86% | 1013 hPa | 0 mm | 0 m/s | 136 W/m² | - |
| 1778004822 | 6.11° C | 84% | 1013.1 hPa | 0 mm | 0 m/s | 146 W/m² | - |
| 1778004519 | 6.11° C | 86% | 1012.9 hPa | 0 mm | 0 m/s | 206 W/m² | - |
| 1778004215 | 6.11° C | 87% | 1012.9 hPa | 0 mm | 0 m/s | 252 W/m² | - |
| 1778003912 | 5.56° C | 87% | 1013.3 hPa | 0 mm | 0 m/s | 266 W/m² | - |
| 1778003608 | 5.56° C | 87% | 1013.1 hPa | 1.78 mm | 0 m/s | 192 W/m² | - |
* Rain latest hour (hover to see other rain measurements)
** Current wind speed in m/s (hover to see current wind gust speed)